Weather History for Price, UT

Change the Weather History Date:

Wednesday, February 20, 2013

  Actual Average Record
Temperature  
Mean Temperature 35 °F -  
Max Temperature 42 °F 38 °F 63 °F (1977)
Min Temperature 28 °F 21 °F 6 °F (1973)
Degree Days  
Heating Degree Days 30    
Moisture  
Dew Point 17 °F    
Average Humidity 51    
Maximum Humidity 67    
Minimum Humidity 33    
Precipitation  
Precipitation 0.00 in - - ()
Sea Level Pressure  
Sea Level Pressure 29.63 in    
Wind  
Wind Speed 4 mph (NNW)    
Max Wind Speed 15 mph    
Max Gust Speed 22 mph    
Visibility 10 miles    
Events      
Averages and records for this station are not official NWS values.
T = Trace of Precipitation, MM = Missing Value Source: NWS Daily Summary

Daily Weather History Graph

Daily Weather History Graph

Search for Another Location

Airport:

Trip Planner

Search our weather history database for the weather conditions in past years. The results will help you decide how hot, cold, wet, or windy it might be!

Date:

Astronomy

Feb. 20, 2013 Rise Set
Actual Time 7:08 AM MST 6:05 PM MST
Civil Twilight 6:41 AM MST 6:32 PM MST
Nautical Twilight 6:09 AM MST 7:04 PM MST
Astronomical Twilight 5:38 AM MST 7:35 PM MST
Moon 1:30 PM MST (2/20) 3:30 AM MST (2/20)
Length of Visible Light 11h 51m
Length of Day
10h 57m
Waxing Gibbous, 76% of the Moon is Illuminated
Feb 20
Waxing Gibbous
Feb 25
Full
Mar 4
Last Quarter
Mar 11
New
Mar 19
First Quarter

Hourly Weather History & Observations

Time (MST) Temp. Windchill Dew Point Humidity Pressure Visibility Wind Dir Wind Speed Gust Speed Precip Events Conditions
12:53 AM 30.9 °F 26.2 °F 15.1 °F 52% 29.65 in 10.0 mi NNW 4.6 mph - N/A   Overcast
1:53 AM 30.9 °F - 18.0 °F 59% 29.65 in 10.0 mi Calm Calm - N/A   Overcast
2:53 AM 30.9 °F 24.3 °F 19.0 °F 61% 29.61 in 10.0 mi NNE 6.9 mph - N/A   Mostly Cloudy
3:53 AM 30.9 °F - 16.0 °F 54% 29.58 in 10.0 mi Calm Calm - N/A   Clear
4:53 AM 28.4 °F - 17.6 °F 64% 29.55 in 10.0 mi Calm Calm - N/A   Partly Cloudy
5:53 AM 28.9 °F 25.2 °F 16.0 °F 58% 29.63 in 10.0 mi SSE 3.5 mph - N/A   Mostly Cloudy
6:53 AM 28.9 °F - 19.0 °F 67% 29.64 in 10.0 mi Calm Calm - N/A   Overcast
7:53 AM 28.9 °F - 17.1 °F 61% 29.65 in 10.0 mi Calm Calm - N/A   Partly Cloudy
8:53 AM 30.9 °F - 19.0 °F 61% 29.66 in 10.0 mi Calm Calm - N/A   Clear
9:53 AM 34.0 °F - 17.1 °F 50% 29.65 in 10.0 mi Calm Calm - N/A   Clear
10:53 AM 39.9 °F 37.8 °F 12.9 °F 33% 29.63 in 10.0 mi SSE 3.5 mph - N/A   Clear
11:53 AM 39.9 °F 34.5 °F 15.1 °F 36% 29.62 in 10.0 mi SSE 8.1 mph - N/A   Clear
12:53 PM 39.9 °F 36.7 °F 14.0 °F 35% 29.60 in 10.0 mi East 4.6 mph - N/A   Clear
1:53 PM 39.9 °F 37.8 °F 16.0 °F 38% 29.59 in 10.0 mi Variable 3.5 mph - N/A   Clear
2:53 PM 41.0 °F 39.0 °F 14.0 °F 33% 29.59 in 10.0 mi ESE 3.5 mph - N/A   Clear
3:53 PM 42.8 °F 41.1 °F 15.8 °F 34% 29.54 in 10.0 mi ESE 3.5 mph - N/A   Clear
4:53 PM 41.0 °F 39.0 °F 16.0 °F 36% 29.59 in 10.0 mi South 3.5 mph - N/A   Clear
5:53 PM 37.9 °F 34.4 °F 17.1 °F 43% 29.61 in 10.0 mi West 4.6 mph - N/A   Clear
6:53 PM 33.1 °F 26.9 °F 21.0 °F 61% 29.65 in 10.0 mi NNW 6.9 mph - N/A   Clear
7:53 PM 35.1 °F 26.4 °F 19.9 °F 54% 29.66 in 10.0 mi NW 12.7 mph - N/A   Mostly Cloudy
8:53 PM 34.0 °F 24.2 °F 19.9 °F 56% 29.66 in 10.0 mi NNW 15.0 mph 21.9 mph N/A   Clear
9:53 PM 33.1 °F 26.1 °F 19.9 °F 59% 29.68 in 10.0 mi NW 8.1 mph 21.9 mph N/A   Clear
10:53 PM 32.0 °F 25.6 °F 19.0 °F 59% 29.67 in 10.0 mi West 6.9 mph - N/A   Clear
11:53 PM 33.1 °F 24.9 °F 18.0 °F 54% 29.67 in 10.0 mi NW 10.4 mph - N/A   Partly Cloudy